铱星星座 39星 (IRIDIUM 39)

导读

IRIDIUM 39是美国1997年11月9日发射的铱星系统卫星,铱星系统是全球首个大型低轨卫星通信系统,IRIDIUM 39承担全球语音通信、数据传输服务,为用户提供全球无缝覆盖的移动通信,是早期低轨卫星通信网络的重要组成节点,推动了全球卫星通信行业发展。

基本信息
目录编号:
25042
目录名称:
IRIDIUM 39
国际标识:
1997-069D
轨道中心:
EARTH
卫星名称:
铱星星座 39星
卫星全名:
铱星星座 39星 (IRIDIUM 39)
卫星状态:
在轨 (已飞行10442 天)
发射日期:
1997-11-09 UTC
国别 :
美国 (US)
星等 :
--
轨道信息
数据来源 国际轨道数据 AOE轨道数据
星历时间 2026-06-12T13:00:56+0800
15小时前
查看轨道信息
2026-06-12T00:00:00+0800
1天前
查看轨道信息
半长轴 7104.55km 7104.553km
偏心率 0.0017438 0.0016937
轨道倾角 86.391° 86.391°
近地点辐角 176.097° 176.089°
升交点赤经 56.715° 56.946°
平近点角 184.037° 235.424°
近地点 714.024km 714.383km
远地点 738.802km 738.449km
周期 99.326分钟 99.326分钟
每日圈数 14.497662 14.497653
详细信息
平衡模式:
三轴稳定
覆盖范围:
全球
运营商:
铱星通信公司
运营商所在国:
美国
使用方式:
暂无
卫星简介
铱星(Iridium)是由共66个运作中的通信卫星组成的卫星通信系统。这个系统原本规划77个通信卫星,所以用原子序数为77的铱元素来命名。铱卫星允许人们使用手持型电子设备进行全球性的语音及数据通讯。该卫星已退役。
2D轨道图
3D轨道图
轨道高度分析图
轨道倾角分析图
轨道综合分析图
查看轨道综合分析图